This demonstration page uses our WeatherBlox Daily Observations layout. Learn more.

Left ArrowRight Arrow

Hourly Observations for May 19, 2021

Temp ( °F °C ) Dew Point ( °F °C ) Humidity (%) Winds ( mph kmh ) Pressure ( in mb ) Visibility ( mi km ) Precip ( " mm )
12:56 am 00:56 Clear 62 16.7 59 15 90 90 Calm 29.88 1012 10 16 0.00 0.00
1:56 am 01:56 Clear 60 15.6 59 15 96 96 ESE 6 9 29.87 1012 10 16 0.00 0.00
2:56 am 02:56 Clear 60 15.6 59 15 96 96 SE 3 6 29.86 1011 10 16 0.00 0.00
3:56 am 03:56 Mostly Clear 60 15.6 59 15 96 96 SE 5 7 29.85 1011 8 13 0.00 0.00
4:56 am 04:56 Clear 59 15 58 14.4 96 96 SSW 5 7 29.86 1011 8 13 0.00 0.00
5:56 am 05:56 Mostly Cloudy 59 15 58 14.4 96 96 SSE 6 9 29.88 1012 10 16 0.00 0.00
6:56 am 06:56 Cloudy 60 15.6 58 14.4 93 93 W 6 9 29.89 1012 10 16 0.00 0.00
7:56 am 07:56 Cloudy 61 16.1 58 14.4 90 90 SE 3 6 29.91 1013 10 16 0.00 0.00
8:56 am 08:56 Cloudy 61 16.1 58 14.4 90 90 SE 9 15 29.91 1013 10 16 0.00 0.00
9:56 am 09:56 Cloudy 62 16.7 60 15.6 93 93 Calm 29.91 1013 10 16 0.00 0.00
10:56 am 10:56 Cloudy 66 18.9 60 15.6 81 81 E 8 13 29.90 1013 10 16 0.00 0.00
11:36 am 11:36 Mostly Cloudy 66 19 61 16 83 83 SSE 13 20 29.87 1012 10 16 0.00 0.00
11:56 am 11:56 Cloudy 67 19.4 61 16.1 81 81 SSE 10 17 29.90 1013 10 16 0.00 0.00
12:56 pm 12:56 Mostly Sunny 70 21.1 58 14.4 66 66 S 8 13 29.89 1012 10 16 0.00 0.00
1:29 pm 13:29 Mostly Cloudy 72 22 61 16 69 69 SSE 8 13 29.83 1010 10 16 0.00 0.00
1:36 pm 13:36 Mostly Cloudy 70 21 61 16 73 73 S 9 15 29.84 1010 10 16 0.00 0.00
1:52 pm 13:52 Mostly Cloudy 70 21 61 16 73 73 SSE 8 13 29.83 1010 10 16 0.00 0.00
1:56 pm 13:56 Mostly Cloudy 71 21.7 61 16.1 71 71 SE 10 17 29.88 1012 10 16 0.00 0.00
2:18 pm 14:18 Mostly Cloudy 72 22 61 16 69 69 SE 10 17 29.83 1010 10 16 0.00 0.00
2:39 pm 14:39 Mostly Cloudy 70 21 61 16 73 73 SE 13 20 29.84 1010 10 16 0.00 0.00
2:52 pm 14:52 Mostly Cloudy 72 22 63 17 73 73 SSE 15 24 29.83 1010 10 16 0.00 0.00
2:56 pm 14:56 Partly Cloudy 71 21.7 61 16.1 71 71 SSE 16 26 29.88 1012 10 16 0.00 0.00
3:56 pm 15:56 Partly Cloudy 71 21.7 61 16.1 71 71 SSE 15 24 29.88 1012 10 16 0.00 0.00
4:03 pm 16:03 Mostly Cloudy 70 21 61 16 73 73 SE 15 24 29.83 1010 10 16 0.00 0.00
4:10 pm 16:10 Mostly Cloudy 70 21 61 16 73 73 SE 18 30 29.83 1010 10 16 0.00 0.00
4:56 pm 16:56 Partly Cloudy 69 20.6 60 15.6 73 73 SSE 13 20 29.88 1012 10 16 0.00 0.00
5:56 pm 17:56 Partly Cloudy 69 20.6 61 16.1 76 76 SSE 15 24 29.89 1012 10 16 0.00 0.00
6:56 pm 18:56 Partly Cloudy 68 20 60 15.6 76 76 S 13 20 29.88 1012 10 16 0.00 0.00
7:56 pm 19:56 Mostly Sunny 68 20 60 15.6 76 76 SSE 9 15 29.88 1012 10 16 0.00 0.00
8:56 pm 20:56 Clear 65 18.3 60 15.6 84 84 SSE 8 13 29.89 1012 10 16 0.00 0.00
9:56 pm 21:56 Clear 63 17.2 61 16.1 93 93 SSE 9 15 29.90 1013 10 16 0.00 0.00
10:56 pm 22:56 Clear 62 16.7 60 15.6 93 93 SSE 13 20 29.91 1013 10 16 0.00 0.00
11:56 pm 23:56 Clear 61 16.1 60 15.6 97 97 SSE 12 19 29.91 1013 10 16 0.00 0.00

Powered by AerisWeather